| time (UTC) | temp F | wind direction | speed MPH | gust MPH | rain 1hr in | rain 24hr in | rain mn in | humidity % | barometer mb |
| 20260504141258 | 62 | 160 | 2.0 | 6.0 | 0.00 | 0.00 | 0.00 | 58 | 1015.9 |
| 20260504140755 | 62 | 223 | 4.0 | 7.0 | 0.00 | 0.00 | 0.00 | 58 | 1015.7 |
| 20260504140250 | 62 | 168 | 1.0 | 2.0 | 0.00 | 0.00 | 0.00 | 60 | 1015.7 |
| 20260504130719 | 55 | 202 | 3.0 | 4.0 | 0.00 | 0.00 | 0.00 | 74 | 1015.9 |
| 20260504130215 | 55 | 232 | 1.0 | 3.0 | 0.00 | 0.00 | 0.00 | 76 | 1015.5 |
| 20260504120139 | 45 | 175 | 0.0 | 1.0 | 0.00 | 0.00 | 0.00 | 90 | 1015.6 |
| 20260504110606 | 37 | 189 | 0.0 | 0.0 | 0.00 | 0.00 | 0.00 | 91 | 1015.4 |
| 20260504100528 | 36 | 189 | 0.0 | 1.0 | 0.00 | 0.00 | 0.00 | 90 | 1015.4 |
| 20260504081921 | 35 | 175 | 0.0 | 1.0 | 0.00 | 0.00 | 0.00 | 86 | 1015.2 |
| 20260504081418 | 35 | 189 | 0.0 | 0.0 | 0.00 | 0.00 | 0.00 | 86 | 1015.5 |
| 20260504080914 | 36 | 184 | 0.0 | 0.0 | 0.00 | 0.00 | 0.00 | 85 | 1015.3 |
| 20260504080411 | 36 | 184 | 0.0 | 0.0 | 0.00 | 0.00 | 0.00 | 85 | 1015.6 |
| 20260504070338 | 36 | 178 | 0.0 | 0.0 | 0.00 | 0.00 | 0.00 | 83 | 1015.5 |
| 20260504050715 | 40 | 180 | 0.0 | 0.0 | 0.00 | 0.00 | 0.00 | 77 | 1015.5 |
| 20260504050212 | 40 | 183 | 0.0 | 0.0 | 0.00 | 0.00 | 0.00 | 77 | 1015.7 |
| 20260504045709 | 40 | 180 | 0.0 | 0.0 | 0.00 | 0.00 | 0.00 | 77 | 1015.7 |
| 20260504045204 | 40 | 177 | 0.0 | 0.0 | 0.00 | 0.00 | 0.00 | 76 | 1015.6 |
| 20260504044702 | 40 | 157 | 1.0 | 1.0 | 0.00 | 0.00 | 0.00 | 76 | 1015.5 |
| 20260504044159 | 40 | 184 | 0.0 | 0.0 | 0.00 | 0.00 | 0.00 | 75 | 1015.7 |
| 20260504043656 | 40 | 184 | 0.0 | 0.0 | 0.00 | 0.00 | 0.00 | 75 | 1015.5 |
| 20260504043153 | 40 | 184 | 0.0 | 0.0 | 0.00 | 0.00 | 0.00 | 75 | 1015.6 |
| 20260504042650 | 41 | 178 | 0.0 | 0.0 | 0.00 | 0.00 | 0.00 | 74 | 1015.5 |
| 20260504042147 | 41 | 189 | 0.0 | 0.0 | 0.00 | 0.00 | 0.00 | 74 | 1015.5 |
| 20260504041642 | 41 | 183 | 0.0 | 1.0 | 0.00 | 0.00 | 0.00 | 74 | 1015.5 |
| 20260504041138 | 41 | 181 | 0.0 | 0.0 | 0.00 | 0.00 | 0.00 | 74 | 1015.5 |
| 20260504040636 | 41 | 179 | 0.0 | 0.0 | 0.00 | 0.00 | 0.00 | 73 | 1015.5 |
| 20260504040133 | 41 | 165 | 1.0 | 1.0 | 0.00 | 0.00 | 0.00 | 73 | 1015.4 |
| 20260504035629 | 41 | 180 | 0.0 | 0.0 | 0.00 | 0.00 | 0.00 | 73 | 1015.4 |
| 20260504035126 | 41 | 181 | 0.0 | 0.0 | 0.00 | 0.00 | 0.00 | 72 | 1015.4 |
| 20260504034624 | 42 | 187 | 0.0 | 0.0 | 0.00 | 0.00 | 0.00 | 72 | 1015.3 |
| 20260504034121 | 42 | 176 | 0.0 | 0.0 | 0.00 | 0.00 | 0.00 | 72 | 1015.3 |
| 20260504033619 | 43 | 182 | 0.0 | 0.0 | 0.00 | 0.00 | 0.00 | 71 | 1015.1 |
| 20260504033116 | 43 | 182 | 0.0 | 1.0 | 0.00 | 0.00 | 0.00 | 71 | 1015.3 |
| 20260504032612 | 44 | 141 | 1.0 | 2.0 | 0.00 | 0.00 | 0.00 | 71 | 1015.5 |
| 20260504032109 | 44 | 132 | 2.0 | 2.0 | 0.00 | 0.00 | 0.00 | 70 | 1015.3 |
| 20260504031606 | 44 | 165 | 0.0 | 1.0 | 0.00 | 0.00 | 0.00 | 70 | 1015.4 |
| 20260504031103 | 44 | 163 | 0.0 | 0.0 | 0.00 | 0.00 | 0.00 | 70 | 1015.4 |
| 20260504030559 | 44 | 175 | 0.0 | 0.0 | 0.00 | 0.00 | 0.00 | 70 | 1015.3 |
| 20260504030056 | 44 | 177 | 0.0 | 0.0 | 0.00 | 0.00 | 0.00 | 70 | 1015.5 |
| 20260504025553 | 45 | 154 | 0.0 | 2.0 | 0.00 | 0.00 | 0.00 | 69 | 1015.4 |
| 20260504025050 | 45 | 165 | 0.0 | 1.0 | 0.00 | 0.00 | 0.00 | 68 | 1015.6 |
| 20260504024547 | 46 | 171 | 0.0 | 1.0 | 0.00 | 0.00 | 0.00 | 67 | 1015.7 |
| 20260504024044 | 47 | 179 | 0.0 | 0.0 | 0.00 | 0.00 | 0.00 | 66 | 1015.6 |
| 20260504023540 | 47 | 153 | 1.0 | 1.0 | 0.00 | 0.00 | 0.00 | 66 | 1015.6 |
| 20260504023036 | 46 | 162 | 1.0 | 2.0 | 0.00 | 0.00 | 0.00 | 66 | 1015.5 |
| 20260504022532 | 46 | 132 | 2.0 | 2.0 | 0.00 | 0.00 | 0.00 | 66 | 1015.6 |
| 20260504022029 | 47 | 181 | 0.0 | 1.0 | 0.00 | 0.00 | 0.00 | 66 | 1015.6 |
| 20260504021526 | 47 | 125 | 2.0 | 3.0 | 0.00 | 0.00 | 0.00 | 66 | 1015.3 |
| 20260504021023 | 47 | 141 | 2.0 | 2.0 | 0.00 | 0.00 | 0.00 | 66 | 1015.4 |
| 20260504020520 | 47 | 66 | 2.0 | 2.0 | 0.00 | 0.00 | 0.00 | 66 | 1015.2 |
| 20260504020017 | 48 | 98 | 1.0 | 2.0 | 0.00 | 0.00 | 0.00 | 65 | 1015.1 |
| 20260504015513 | 48 | 154 | 1.0 | 1.0 | 0.00 | 0.00 | 0.00 | 64 | 1015.3 |
| 20260504015009 | 49 | 76 | 2.0 | 2.0 | 0.00 | 0.00 | 0.00 | 63 | 1015.1 |
| 20260504014505 | 49 | 143 | 1.0 | 2.0 | 0.00 | 0.00 | 0.00 | 62 | 1015.2 |
| 20260504014003 | 49 | 154 | 1.0 | 1.0 | 0.00 | 0.00 | 0.00 | 61 | 1015.2 |
| 20260504013501 | 50 | 169 | 0.0 | 1.0 | 0.00 | 0.00 | 0.00 | 59 | 1014.7 |
| 20260504012956 | 50 | 185 | 0.0 | 2.0 | 0.00 | 0.00 | 0.00 | 58 | 1014.6 |
| 20260504012455 | 50 | 127 | 2.0 | 2.0 | 0.00 | 0.00 | 0.00 | 57 | 1014.8 |
| 20260504011952 | 51 | 135 | 1.0 | 2.0 | 0.00 | 0.00 | 0.00 | 57 | 1014.5 |
| 20260504011448 | 51 | 153 | 0.0 | 1.0 | 0.00 | 0.00 | 0.00 | 56 | 1014.8 |
| 20260504010944 | 52 | 173 | 0.0 | 0.0 | 0.00 | 0.00 | 0.00 | 55 | 1014.5 |
| 20260504010441 | 53 | 151 | 1.0 | 3.0 | 0.00 | 0.00 | 0.00 | 54 | 1014.6 |
| 20260504005936 | 53 | 147 | 1.0 | 1.0 | 0.00 | 0.00 | 0.00 | 53 | 1014.6 |
| 20260504005433 | 53 | 143 | 2.0 | 2.0 | 0.00 | 0.00 | 0.00 | 52 | 1014.4 |
| 20260504004931 | 54 | 183 | 0.0 | 1.0 | 0.00 | 0.00 | 0.00 | 50 | 1014.4 |
| 20260504004429 | 55 | 163 | 1.0 | 1.0 | 0.00 | 0.00 | 0.00 | 48 | 1014.4 |
| 20260504003925 | 56 | 147 | 1.0 | 1.0 | 0.00 | 0.00 | 0.00 | 47 | 1014.5 |
| 20260504003422 | 57 | 135 | 1.0 | 2.0 | 0.00 | 0.00 | 0.00 | 47 | 1014.0 |
| 20260504002918 | 57 | 137 | 0.0 | 2.0 | 0.00 | 0.00 | 0.00 | 48 | 1014.4 |
| 20260504002415 | 57 | 124 | 1.0 | 2.0 | 0.00 | 0.00 | 0.00 | 48 | 1014.3 |
| 20260504001913 | 57 | 146 | 1.0 | 2.0 | 0.00 | 0.00 | 0.00 | 46 | 1014.4 |
| 20260504001410 | 57 | 146 | 1.0 | 2.0 | 0.00 | 0.00 | 0.00 | 46 | 1014.0 |
| 20260504000906 | 57 | 146 | 2.0 | 2.0 | 0.00 | 0.00 | 0.00 | 46 | 1013.8 |
| 20260504000404 | 59 | 157 | 1.0 | 2.0 | 0.00 | 0.00 | 0.00 | 43 | 1014.1 |
| 20260503235901 | 60 | 187 | 0.0 | 1.0 | 0.00 | 0.00 | 0.00 | 39 | 1013.9 |
| 20260503235359 | 62 | 203 | 0.0 | 0.0 | 0.00 | 0.00 | 0.00 | 38 | 1013.9 |
| 20260503234856 | 62 | 203 | 0.0 | 0.0 | 0.00 | 0.00 | 0.00 | 37 | 1013.8 |
| 20260503234354 | 63 | 206 | 1.0 | 2.0 | 0.00 | 0.00 | 0.00 | 36 | 1014.0 |
| 20260503233851 | 64 | 230 | 2.0 | 3.0 | 0.00 | 0.00 | 0.00 | 35 | 1013.8 |
| 20260503233348 | 64 | 204 | 2.0 | 4.0 | 0.00 | 0.00 | 0.00 | 35 | 1013.9 |
| 20260503232844 | 64 | 232 | 2.0 | 4.0 | 0.00 | 0.00 | 0.00 | 34 | 1013.8 |
| 20260503232341 | 65 | 220 | 3.0 | 4.0 | 0.00 | 0.00 | 0.00 | 33 | 1013.7 |
| 20260503231839 | 65 | 236 | 3.0 | 3.0 | 0.00 | 0.00 | 0.00 | 33 | 1013.7 |
| 20260503231336 | 66 | 220 | 3.0 | 6.0 | 0.00 | 0.00 | 0.00 | 33 | 1013.6 |
| 20260503230832 | 66 | 222 | 4.0 | 6.0 | 0.00 | 0.00 | 0.00 | 32 | 1013.7 |
| 20260503230329 | 66 | 219 | 3.0 | 4.0 | 0.00 | 0.00 | 0.00 | 32 | 1013.6 |
| 20260503225827 | 66 | 239 | 1.0 | 3.0 | 0.00 | 0.00 | 0.00 | 32 | 1013.7 |
| 20260503225322 | 66 | 179 | 2.0 | 6.0 | 0.00 | 0.00 | 0.00 | 32 | 1013.6 |
| 20260503224819 | 66 | 230 | 4.0 | 6.0 | 0.00 | 0.00 | 0.00 | 32 | 1013.9 |
| 20260503224316 | 66 | 181 | 5.0 | 8.0 | 0.00 | 0.00 | 0.00 | 32 | 1013.7 |
| 20260503223814 | 66 | 210 | 6.0 | 8.0 | 0.00 | 0.00 | 0.00 | 32 | 1013.8 |
| 20260503223311 | 66 | 209 | 4.0 | 8.0 | 0.00 | 0.00 | 0.00 | 31 | 1013.8 |
| 20260503222807 | 66 | 216 | 3.0 | 6.0 | 0.00 | 0.00 | 0.00 | 31 | 1014.0 |
| 20260503222306 | 66 | 230 | 4.0 | 7.0 | 0.00 | 0.00 | 0.00 | 30 | 1013.9 |
| 20260503221803 | 66 | 153 | 2.0 | 9.0 | 0.00 | 0.00 | 0.00 | 29 | 1013.9 |
| 20260503221301 | 66 | 233 | 4.0 | 11.0 | 0.00 | 0.00 | 0.00 | 29 | 1013.9 |
| 20260503220757 | 68 | 245 | 7.0 | 9.0 | 0.00 | 0.00 | 0.00 | 28 | 1013.7 |
| 20260503220254 | 68 | 206 | 5.0 | 6.0 | 0.00 | 0.00 | 0.00 | 27 | 1013.7 |
| 20260503215751 | 68 | 192 | 1.0 | 6.0 | 0.00 | 0.00 | 0.00 | 26 | 1013.9 |
| 20260503215248 | 68 | 208 | 1.0 | 4.0 | 0.00 | 0.00 | 0.00 | 26 | 1013.8 |
| 20260503214746 | 68 | 202 | 4.0 | 6.0 | 0.00 | 0.00 | 0.00 | 26 | 1013.8 |
| 20260503214243 | 68 | 218 | 3.0 | 4.0 | 0.00 | 0.00 | 0.00 | 26 | 1014.1 |
| 20260503213741 | 68 | 215 | 3.0 | 4.0 | 0.00 | 0.00 | 0.00 | 26 | 1014.0 |
| 20260503213238 | 67 | 192 | 0.0 | 3.0 | 0.00 | 0.00 | 0.00 | 26 | 1013.9 |
| 20260503212734 | 68 | 219 | 6.0 | 8.0 | 0.00 | 0.00 | 0.00 | 27 | 1014.1 |
| 20260503212232 | 66 | 162 | 4.0 | 8.0 | 0.00 | 0.00 | 0.00 | 26 | 1014.3 |
| 20260503211730 | 68 | 243 | 5.0 | 11.0 | 0.00 | 0.00 | 0.00 | 26 | 1014.4 |
| 20260503211226 | 67 | 194 | 1.0 | 6.0 | 0.00 | 0.00 | 0.00 | 26 | 1014.3 |
| 20260503210721 | 67 | 212 | 4.0 | 11.0 | 0.00 | 0.00 | 0.00 | 26 | 1014.5 |
| 20260503210219 | 68 | 218 | 4.0 | 7.0 | 0.00 | 0.00 | 0.00 | 27 | 1014.5 |
| 20260503205714 | 68 | 220 | 3.0 | 8.0 | 0.00 | 0.00 | 0.00 | 26 | 1014.5 |
| 20260503205210 | 68 | 273 | 3.0 | 7.0 | 0.00 | 0.00 | 0.00 | 27 | 1014.7 |
| 20260503204707 | 67 | 233 | 2.0 | 4.0 | 0.00 | 0.00 | 0.00 | 26 | 1014.5 |
| 20260503204205 | 67 | 232 | 5.0 | 8.0 | 0.00 | 0.00 | 0.00 | 26 | 1014.6 |
| 20260503203702 | 66 | 210 | 3.0 | 7.0 | 0.00 | 0.00 | 0.00 | 25 | 1014.6 |
| 20260503203200 | 68 | 148 | 4.0 | 8.0 | 0.00 | 0.00 | 0.00 | 25 | 1014.8 |
| 20260503202656 | 67 | 224 | 3.0 | 4.0 | 0.00 | 0.00 | 0.00 | 26 | 1014.7 |
| 20260503202154 | 66 | 203 | 3.0 | 7.0 | 0.00 | 0.00 | 0.00 | 25 | 1014.7 |
| 20260503201652 | 67 | 225 | 8.0 | 9.0 | 0.00 | 0.00 | 0.00 | 25 | 1014.9 |
| 20260503201149 | 69 | 207 | 7.0 | 8.0 | 0.00 | 0.00 | 0.00 | 25 | 1015.0 |
| 20260503200645 | 68 | 190 | 0.0 | 1.0 | 0.00 | 0.00 | 0.00 | 25 | 1015.0 |
| 20260503200142 | 67 | 186 | 0.0 | 9.0 | 0.00 | 0.00 | 0.00 | 25 | 1015.2 |
| 20260503195639 | 66 | 225 | 1.0 | 4.0 | 0.00 | 0.00 | 0.00 | 25 | 1015.0 |
| 20260503195136 | 66 | 248 | 5.0 | 11.0 | 0.00 | 0.00 | 0.00 | 26 | 1015.1 |
| 20260503194633 | 66 | 244 | 5.0 | 7.0 | 0.00 | 0.00 | 0.00 | 25 | 1015.1 |
| 20260503194128 | 65 | 219 | 2.0 | 7.0 | 0.00 | 0.00 | 0.00 | 25 | 1015.1 |
| 20260503193625 | 66 | 88 | 5.0 | 7.0 | 0.00 | 0.00 | 0.00 | 25 | 1015.3 |
| 20260503193121 | 67 | 201 | 2.0 | 8.0 | 0.00 | 0.00 | 0.00 | 26 | 1015.5 |
| 20260503192616 | 66 | 304 | 3.0 | 7.0 | 0.00 | 0.00 | 0.00 | 27 | 1015.5 |
| 20260503192112 | 65 | 219 | 4.0 | 7.0 | 0.00 | 0.00 | 0.00 | 26 | 1015.5 |
| 20260503191609 | 64 | 207 | 4.0 | 11.0 | 0.00 | 0.00 | 0.00 | 26 | 1015.5 |
| 20260503191106 | 66 | 217 | 3.0 | 8.0 | 0.00 | 0.00 | 0.00 | 26 | 1015.8 |
| 20260503190604 | 66 | 170 | 5.0 | 9.0 | 0.00 | 0.00 | 0.00 | 26 | 1015.6 |
| 20260503190101 | 65 | 197 | 6.0 | 7.0 | 0.00 | 0.00 | 0.00 | 26 | 1015.8 |
| 20260503185557 | 65 | 206 | 1.0 | 4.0 | 0.00 | 0.00 | 0.00 | 25 | 1015.8 |
| 20260503185056 | 66 | 219 | 5.0 | 8.0 | 0.00 | 0.00 | 0.00 | 25 | 1016.2 |
| 20260503184552 | 65 | 201 | 2.0 | 8.0 | 0.00 | 0.00 | 0.00 | 26 | 1015.8 |
| 20260503184049 | 65 | 163 | 1.0 | 3.0 | 0.00 | 0.00 | 0.00 | 26 | 1016.0 |
| 20260503183546 | 64 | 214 | 2.0 | 6.0 | 0.00 | 0.00 | 0.00 | 27 | 1016.1 |
| 20260503183043 | 63 | 307 | 6.0 | 9.0 | 0.00 | 0.00 | 0.00 | 27 | 1016.2 |
| 20260503182541 | 63 | 231 | 7.0 | 9.0 | 0.00 | 0.00 | 0.00 | 27 | 1016.3 |
| 20260503182039 | 63 | 249 | 4.0 | 9.0 | 0.00 | 0.00 | 0.00 | 27 | 1016.3 |
| 20260503181536 | 63 | 216 | 7.0 | 13.0 | 0.00 | 0.00 | 0.00 | 27 | 1016.4 |
| 20260503181032 | 62 | 223 | 4.0 | 6.0 | 0.00 | 0.00 | 0.00 | 26 | 1016.5 |
| 20260503180529 | 61 | 199 | 0.0 | 3.0 | 0.00 | 0.00 | 0.00 | 26 | 1016.8 |
| 20260503180027 | 63 | 247 | 5.0 | 9.0 | 0.00 | 0.00 | 0.00 | 27 | 1016.8 |
| 20260503175524 | 63 | 202 | 3.0 | 4.0 | 0.00 | 0.00 | 0.00 | 27 | 1016.7 |
| 20260503175021 | 64 | 229 | 3.0 | 9.0 | 0.00 | 0.00 | 0.00 | 28 | 1016.7 |
| 20260503174519 | 62 | 278 | 2.0 | 8.0 | 0.00 | 0.00 | 0.00 | 27 | 1016.7 |
| 20260503174014 | 63 | 308 | 4.0 | 9.0 | 0.00 | 0.00 | 0.00 | 27 | 1017.1 |
| 20260503173509 | 63 | 299 | 3.0 | 8.0 | 0.00 | 0.00 | 0.00 | 28 | 1016.8 |
| 20260503173006 | 62 | 245 | 1.0 | 4.0 | 0.00 | 0.00 | 0.00 | 27 | 1017.1 |
| 20260503172504 | 63 | 238 | 6.0 | 7.0 | 0.00 | 0.00 | 0.00 | 29 | 1017.4 |
| 20260503172001 | 62 | 167 | 0.0 | 2.0 | 0.00 | 0.00 | 0.00 | 30 | 1017.2 |
| 20260503171457 | 61 | 53 | 3.0 | 6.0 | 0.00 | 0.00 | 0.00 | 29 | 1017.5 |
| 20260503170954 | 62 | 171 | 0.0 | 7.0 | 0.00 | 0.00 | 0.00 | 31 | 1017.4 |
| 20260503170450 | 61 | 204 | 1.0 | 6.0 | 0.00 | 0.00 | 0.00 | 32 | 1017.4 |
| 20260503150843 | 56 | 348 | 4.0 | 4.0 | 0.00 | 0.00 | 0.00 | 38 | 1018.4 |
| 20260503150339 | 55 | 198 | 0.0 | 3.0 | 0.00 | 0.00 | 0.00 | 39 | 1018.5 |